DAL122 ZBAA-ZMCK

Flight info

Callsign DAL122
Flight time N/A
Altitude 40100
Route IDKEX2G IDKEX B339 ASILA A575 TOROV DCT SER
Aircraft A359/H-SDE2E3GHIJ3J4J5LM1ORWXY/LB1D1

Departure

Time 2026-05-01 14:51
Airport Beijing Capital International Airport (ZBAA)

Arrival

Time N/A
Airport Ulaanbaatar Chinggis Khaan International Airport (ZMCK)
Time Latitude Longitude Altitude Speed Heading
2026-05-01 14:47 40.08815 116.59301 126 ft 0 kts 83°
2026-05-01 14:48 40.08816 116.59308 126 ft 5 kts 83°
2026-05-01 14:48 40.08827 116.59423 126 ft 0 kts 83°
2026-05-01 14:49 40.08806 116.59491 126 ft 8 kts 141°
2026-05-01 14:50 40.08658 116.59528 128 ft 36 kts 172°
2026-05-01 14:50 40.06785 116.59821 245 ft 176 kts 173°
2026-05-01 14:51 40.05602 116.60014 1015 ft 167 kts 171°
2026-05-01 14:51 40.03156 116.60400 2176 ft 198 kts 172°
2026-05-01 14:52 40.00171 116.60863 3078 ft 240 kts 174°
2026-05-01 14:52 39.98457 116.61126 3672 ft 253 kts 173°
2026-05-01 14:52 39.94923 116.61702 5361 ft 259 kts 175°
2026-05-01 14:53 39.93131 116.61984 6302 ft 260 kts 176°
2026-05-01 14:53 39.91348 116.62258 7173 ft 263 kts 176°
2026-05-01 14:53 39.89518 116.62532 8079 ft 267 kts 176°
2026-05-01 14:53 39.87663 116.62857 8991 ft 272 kts 172°
2026-05-01 14:54 39.85889 116.63785 9874 ft 282 kts 148°
2026-05-01 14:54 39.84527 116.65685 10486 ft 303 kts 122°
2026-05-01 14:54 39.83943 116.68429 10810 ft 332 kts 94°
2026-05-01 14:54 39.84284 116.71496 11155 ft 355 kts 78°
2026-05-01 14:55 39.84818 116.74691 11735 ft 366 kts 78°
2026-05-01 14:55 39.85652 116.77791 12515 ft 371 kts 64°
2026-05-01 14:55 39.87142 116.80532 13348 ft 374 kts 44°
2026-05-01 14:55 39.89282 116.82427 14142 ft 375 kts 22°
2026-05-01 14:56 39.91826 116.83160 14800 ft 378 kts 360°
2026-05-01 14:56 39.94425 116.82717 15475 ft 380 kts 345°
2026-05-01 14:56 39.97002 116.81864 16172 ft 384 kts 343°
2026-05-01 14:56 39.99604 116.80992 16872 ft 388 kts 343°
2026-05-01 14:57 40.02239 116.80138 17587 ft 393 kts 343°
2026-05-01 14:57 40.07616 116.78448 18941 ft 401 kts 343°
2026-05-01 14:57 40.10343 116.77604 19637 ft 404 kts 343°
2026-05-01 14:58 40.13050 116.76768 20324 ft 407 kts 343°
2026-05-01 14:58 40.15818 116.75914 21024 ft 410 kts 343°
2026-05-01 14:58 40.18610 116.75053 21710 ft 414 kts 343°
2026-05-01 14:58 40.21426 116.74185 22394 ft 418 kts 343°
2026-05-01 14:59 40.24258 116.73312 23105 ft 420 kts 343°
2026-05-01 14:59 40.27115 116.72430 23723 ft 424 kts 343°
2026-05-01 14:59 40.29999 116.71539 24231 ft 428 kts 342°
2026-05-01 14:59 40.32866 116.70653 24777 ft 430 kts 342°
2026-05-01 15:00 40.38734 116.68836 25854 ft 436 kts 341°
2026-05-01 15:00 40.41697 116.67918 26396 ft 439 kts 341°
2026-05-01 15:00 40.44678 116.66993 26963 ft 441 kts 340°
2026-05-01 15:01 40.47675 116.66063 27509 ft 444 kts 340°
2026-05-01 15:01 40.50689 116.65125 27996 ft 447 kts 339°
2026-05-01 15:01 40.53723 116.64181 28540 ft 449 kts 339°
2026-05-01 15:01 40.56766 116.63234 29053 ft 452 kts 339°
2026-05-01 15:02 40.59794 116.62289 29521 ft 455 kts 338°
2026-05-01 15:02 40.61880 116.61639 29863 ft 456 kts 338°
2026-05-01 15:02 40.65986 116.60357 30422 ft 460 kts 338°
2026-05-01 15:02 40.69107 116.59381 30806 ft 462 kts 338°
2026-05-01 15:03 40.72248 116.58398 31165 ft 465 kts 338°
2026-05-01 15:03 40.75410 116.57412 31503 ft 469 kts 338°
2026-05-01 15:03 40.78652 116.56637 31837 ft 478 kts 343°
2026-05-01 15:03 40.81982 116.56147 32175 ft 485 kts 346°
2026-05-01 15:04 40.85360 116.55794 32519 ft 489 kts 347°
2026-05-01 15:04 40.88760 116.55507 32903 ft 491 kts 347°
2026-05-01 15:04 40.92123 116.55242 33206 ft 493 kts 347°
2026-05-01 15:04 40.95553 116.54967 33615 ft 492 kts 347°
2026-05-01 15:05 40.98967 116.54681 34024 ft 491 kts 346°
2026-05-01 15:05 41.02366 116.54382 34380 ft 490 kts 346°
2026-05-01 15:05 41.05766 116.54072 34743 ft 489 kts 345°
2026-05-01 15:05 41.09151 116.53760 35191 ft 486 kts 345°
2026-05-01 15:06 41.12516 116.53447 35588 ft 484 kts 345°
2026-05-01 15:06 41.15828 116.53136 35897 ft 483 kts 345°
2026-05-01 15:06 41.19177 116.52792 36197 ft 480 kts 343°
2026-05-01 15:06 41.22427 116.52065 36494 ft 468 kts 335°
2026-05-01 15:07 41.25492 116.50806 36847 ft 454 kts 327°
2026-05-01 15:07 41.28302 116.49055 37309 ft 440 kts 321°
2026-05-01 15:07 41.30967 116.47111 37709 ft 435 kts 320°
2026-05-01 15:07 41.33568 116.45102 38002 ft 432 kts 319°
2026-05-01 15:08 41.36143 116.43051 38266 ft 431 kts 318°
2026-05-01 15:08 41.38705 116.40989 38557 ft 430 kts 318°
2026-05-01 15:08 41.41225 116.38961 38802 ft 428 kts 318°
2026-05-01 15:08 41.43780 116.36912 38991 ft 429 kts 319°
2026-05-01 15:09 41.46300 116.34899 39178 ft 429 kts 319°
2026-05-01 15:09 41.48864 116.32856 39372 ft 429 kts 319°
2026-05-01 15:09 41.51421 116.30825 39681 ft 426 kts 319°
2026-05-01 15:09 41.53965 116.28807 39891 ft 425 kts 319°
2026-05-01 15:10 41.56510 116.26781 39999 ft 427 kts 319°
2026-05-01 15:10 41.64149 116.20683 40028 ft 429 kts 319°
2026-05-01 15:11 41.71829 116.14541 40035 ft 429 kts 319°
2026-05-01 15:12 41.76948 116.10438 40039 ft 429 kts 319°
2026-05-01 15:12 41.84582 116.04304 40042 ft 428 kts 319°
2026-05-01 15:14 41.96399 115.92794 40054 ft 406 kts 301°
2026-05-01 15:14 42.00397 115.84233 40052 ft 397 kts 292°
2026-05-01 15:15 42.05635 115.71162 40053 ft 397 kts 292°
2026-05-01 15:16 42.10876 115.58125 40055 ft 397 kts 292°
2026-05-01 15:18 42.17449 115.41747 40051 ft 398 kts 292°
2026-05-01 15:19 42.22675 115.28655 40055 ft 398 kts 292°
2026-05-01 15:19 42.26519 115.18749 40049 ft 396 kts 290°
2026-05-01 15:20 42.30212 115.08765 40048 ft 397 kts 290°
2026-05-01 15:21 42.32676 115.02143 40051 ft 397 kts 291°
2026-05-01 15:21 42.35164 114.95475 40069 ft 397 kts 290°
2026-05-01 15:22 42.38893 114.85461 40050 ft 397 kts 290°
2026-05-01 15:22 42.41373 114.78780 40051 ft 397 kts 290°
2026-05-01 15:23 42.43829 114.72145 40045 ft 397 kts 290°
2026-05-01 15:23 42.46300 114.65455 40043 ft 397 kts 290°
2026-05-01 15:24 42.48767 114.58758 40047 ft 397 kts 290°
2026-05-01 15:24 42.51231 114.52054 40052 ft 397 kts 290°
2026-05-01 15:25 42.53676 114.45388 40046 ft 398 kts 290°
2026-05-01 15:25 42.56134 114.38670 40046 ft 398 kts 290°
2026-05-01 15:26 42.58586 114.31952 40047 ft 398 kts 290°
2026-05-01 15:26 42.61037 114.25221 40053 ft 398 kts 290°
2026-05-01 15:27 42.63494 114.18482 40045 ft 399 kts 290°
2026-05-01 15:28 42.67349 114.08492 40047 ft 400 kts 291°
2026-05-01 15:28 42.69947 114.01804 40047 ft 400 kts 291°
2026-05-01 15:29 42.73810 113.91748 40048 ft 401 kts 291°
2026-05-01 15:30 42.78937 113.78304 40049 ft 402 kts 291°
2026-05-01 15:31 42.86614 113.58071 40049 ft 402 kts 290°
2026-05-01 15:32 42.91726 113.44517 40052 ft 402 kts 290°
2026-05-01 15:34 42.99331 113.24226 40060 ft 401 kts 290°